GALAXY 32 (G-32)

Last updated on Sun Jan 18 2026 00:02:49 GMT+0000 (Coordinated Universal Time)

1 54244U 22153B 26017.56589615 -.00000158 00000+0 00000+0 0 9996 2 54244 0.0117 50.5034 0002490 283.8301 255.3651 1.00271687 11637
UTC large
Height (km)
Speed (km/s)
/
Latitude / Longitude
Inclination (degrees)
Orbital Period (minutes)
Azimuth
Elevation
Range (km)
Doppler Factor

Next 0 passes for location: London (51.5072 / 0.1276)

Sorry there are no passes over London.